Austin, TX

4:47 AM CDT on April 29, 2017 (GMT -0500)
Austin

Weather History for KATT - November, 2014

Change the Weather History Date:

Saturday, November 29, 2014

  Actual Average Record
Temperature  
Mean Temperature 65 °F 56 °F  
Max Temperature 73 °F 67 °F 84 °F (1991)
Min Temperature 56 °F 46 °F 20 °F (1976)
Degree Days  
Heating Degree Days 0 10  
Month to date heating degree days 288 172  
Since 1 July heating degree days 290 203  
Cooling Degree Days 0 1  
Month to date cooling degree days 10 60  
Year to date cooling degree days 3181 3125  
Growing Degree Days 15 (Base 50)    
Moisture  
Dew Point 57 °F    
Average Humidity 75    
Maximum Humidity 93    
Minimum Humidity 57    
Precipitation  
Precipitation 0.00 in 0.10 in 0.90 in (1900)
Month to date precipitation 5.81 2.88  
Year to date precipitation 34.50 31.84  
Snow  
Snow 0.00 in - - ()
Month to date snowfall 0.0  
Since 1 July snowfall 0.0  
Since 1 September snowfall 0.0  
Snow Depth 0.00 in    
Sea Level Pressure  
Sea Level Pressure 30.02 in    
Wind  
Wind Speed 7 mph (South)    
Max Wind Speed 16 mph    
Max Gust Speed 31 mph    
Visibility 10 miles    
Events      
T = Trace of Precipitation, MM = Missing Value Source: NWS Daily Summary

Daily Weather History Graph

Daily Weather History Graph

Search for Another Location

Airport or City:

Trip Planner

Search our weather history database for the weather conditions in past years. The results will help you decide how hot, cold, wet, or windy it might be!

Date:

Astronomy

Nov. 29, 2014 Rise Set
Actual Time 7:08 AM CST 5:30 PM CST
Civil Twilight 6:42 AM CST 5:56 PM CST
Nautical Twilight 6:12 AM CST 6:25 PM CST
Astronomical Twilight 5:43 AM CST 6:54 PM CST
Moon 12:57 PM CST 12:04 AM CST
Length of Visible Light 11h 13m
Length of Day
10h 21m
First Quarter, 54% of the Moon is Illuminated
Nov 29
First Quarter
Dec 6
Full
Dec 14
Last Quarter
Dec 21
New
Dec 28
First Quarter

Hourly Weather History & Observations

Time (CST) Temp. Dew Point Humidity Pressure Visibility Wind Dir Wind Speed Gust Speed Precip Events Conditions
12:51 AM 57.0 °F 52.0 °F 83% 30.07 in 10.0 mi Variable 6.9 mph - N/A   Clear
1:51 AM 57.9 °F 53.1 °F 84% 30.06 in 10.0 mi South 5.8 mph - N/A   Clear
2:51 AM 57.0 °F 53.1 °F 87% 30.06 in 10.0 mi South 5.8 mph - N/A   Clear
3:51 AM 57.0 °F 54.0 °F 89% 30.05 in 10.0 mi Variable 4.6 mph - N/A   Clear
4:51 AM 57.0 °F 55.0 °F 93% 30.05 in 10.0 mi SSW 3.5 mph - N/A   Partly Cloudy
5:51 AM 57.0 °F 55.0 °F 93% 30.04 in 10.0 mi Variable 4.6 mph - N/A   Clear
6:51 AM 57.0 °F 55.0 °F 93% 30.06 in 10.0 mi Variable 4.6 mph - N/A   Clear
7:51 AM 57.9 °F 55.9 °F 93% 30.06 in 10.0 mi SSW 3.5 mph - N/A   Clear
8:51 AM 63.0 °F 57.0 °F 81% 30.06 in 10.0 mi Variable 6.9 mph - N/A   Clear
9:51 AM 68.0 °F 57.9 °F 70% 30.06 in 10.0 mi South 8.1 mph 20.7 mph N/A   Clear
10:51 AM 71.1 °F 57.0 °F 61% 30.06 in 10.0 mi SSW 9.2 mph 20.7 mph N/A   Partly Cloudy
11:51 AM 70.0 °F 57.0 °F 63% 30.04 in 10.0 mi SSW 11.5 mph 24.2 mph N/A   Scattered Clouds
12:51 PM 72.0 °F 57.9 °F 61% 30.01 in 10.0 mi South 10.4 mph 19.6 mph N/A   Mostly Cloudy
1:51 PM 72.0 °F 57.9 °F 61% 29.98 in 10.0 mi South 11.5 mph 19.6 mph N/A   Overcast
2:51 PM 72.0 °F 57.9 °F 61% 29.96 in 10.0 mi North - - N/A   Mostly Cloudy
3:51 PM 73.0 °F 57.9 °F 59% 29.96 in 10.0 mi SSW 10.4 mph 21.9 mph N/A   Overcast
4:51 PM 73.0 °F 59.0 °F 61% 29.95 in 10.0 mi South 8.1 mph - N/A   Overcast
5:51 PM 72.0 °F 59.0 °F 64% 29.95 in 10.0 mi South 9.2 mph - N/A   Overcast
6:51 PM 69.1 °F 60.1 °F 73% 29.97 in 10.0 mi South 9.2 mph 19.6 mph N/A   Scattered Clouds
7:51 PM 68.0 °F 60.1 °F 76% 29.99 in 10.0 mi South 6.9 mph - N/A   Clear
8:51 PM 66.9 °F 59.0 °F 76% 29.99 in 10.0 mi Variable 4.6 mph - N/A   Clear
9:51 PM 66.9 °F 59.0 °F 76% 29.99 in 10.0 mi South 4.6 mph - N/A   Overcast
10:51 PM 66.0 °F 60.1 °F 81% 29.99 in 10.0 mi South 8.1 mph - N/A   Partly Cloudy
11:12 PM 66.9 °F 60.1 °F 79% 30.01 in 10.0 mi South 6.9 mph - N/A   Mostly Cloudy
11:51 PM 68.0 °F 61.0 °F 78% 29.98 in 10.0 mi Variable 6.9 mph - N/A   Overcast